Content
SEND FEEDBACK

Daily
Averages
Monthly
Summary
United States of America

ST. MARYS, ALASKA


Home > North America > United States > Alaska
Elevation: 1 meter     Latitude: 62 04N     Longitude: 163 11W

WEATHER
 
SELECT A DAY
Number of Records: 465,957;   Date Range: 1/1/95 - 12/18/14
 
SHARE

PRINT THIS DATA

[ ← Previous Day ]
WEATHER ALMANAC - 13 FEBRUARY, 2013
[ Next Day → ]
[ °F ]   °C
Weather ElementAverageHighLow
Temperature-20.2 °C-17 °C (12:36 am)-24 °C (10:56 pm)
Dewpoint-21.7 °C-19 °C (12:36 am)-27 °C (11:56 pm)
Humidity88.1 %100 % (10:16 am)77 % (10:36 pm)
Barometer1004.7 hPa1005.8 hPa (2:36 pm)1002.7 hPa (12:36 am)
Wind Speed10.8 km/h25.9 km/h (12:36 am)
Wind Gust31.5 km/h (2:36 am)
Weather ElementAverage
Visibility12.9 km
Wind DirectionSSE (167.6 °)

Weather ElementTotal
Precipitation---
Heating Degree Days38.8 (Base 18.3)
Averaged from 70 records on 13 February, 2013
WEATHER CONDITIONS BREAKOUT
WIND DIRECTION BREAKOUT
WEATHER BY HOUR - 13 FEBRUARY, 2013
[ °F ]   °C
Local TimeTemperatureDewpointHumidityBarometerVisibilityWind DirectionWind SpeedGust SpeedPrecipitationEventsConditions
12:36 AM-17 °C-19 °C85 %1002.7 hPa16.1 kmSSW (210°)25.9 km/hOvercast
12:56 AM-17 °C-19 °C85 %1003 hPa16.1 kmSSW (210°)22.2 km/hOvercast
1:16 AM-17 °C-19 °C85 %1003.4 hPa16.1 kmSW (220°)25.9 km/hOvercast
1:36 AM-18 °C-20 °C85 %1003.4 hPa16.1 kmSSW (210°)24.1 km/hOvercast
1:56 AM-18 °C-20 °C85 %1003.7 hPa16.1 kmSSW (210°)25.9 km/hOvercast
2:16 AM-19 °C-21 °C85 %1003.7 hPa16.1 kmSSW (210°)18.5 km/hMostly Cloudy
2:36 AM-19 °C-22 °C78 %1004.1 hPa16.1 kmSSW (210°)22.2 km/h31.5 km/hClear
2:56 AM-20 °C-22 °C85 %1004.1 hPa16.1 kmSSW (200°)18.5 km/hClear
3:16 AM-20 °C-22 °C85 %1004.1 hPa16.1 kmSSW (200°)14.8 km/hClear
3:36 AM-20 °C-22 °C85 %1004.1 hPa16.1 kmSouth (190°)13 km/hClear
3:56 AM-19 °C-21 °C85 %1004.1 hPa16.1 kmSouth (190°)13 km/hClear
4:16 AM-19 °C-21 °C85 %1004.1 hPa16.1 kmSouth (180°)13 km/hClear
4:36 AM-19 °C-21 °C85 %1004.1 hPa16.1 kmSouth (180°)11.1 km/hClear
4:56 AM-19 °C-21 °C85 %1004.1 hPa16.1 kmSouth (170°)13 km/hClear
5:16 AM-20 °C-21 °C92 %1004.1 hPa16.1 kmSouth (180°)14.8 km/hClear
5:56 AM-20 °C-22 °C85 %1004.1 hPa16.1 kmSouth (180°)14.8 km/hClear
6:16 AM-21 °C-22 °C92 %1004.1 hPa16.1 kmSouth (180°)13 km/hClear
6:36 AM-21 °C-22 °C92 %1004.1 hPa16.1 kmSouth (180°)14.8 km/hPartly Cloudy
6:56 AM-20 °C-22 °C85 %1004.1 hPa16.1 kmSouth (180°)16.7 km/hPartly Cloudy
7:16 AM-20 °C-21 °C92 %1004.1 hPa16.1 kmSouth (170°)13 km/hClear
7:36 AM-20 °C-21 °C92 %1004.1 hPa14.5 kmSouth (180°)14.8 km/hClear
7:56 AM-20 °C-21 °C92 %1004.1 hPa16.1 kmSouth (180°)13 km/hClear
8:16 AM-20 °C-21 °C92 %1004.4 hPa9.7 kmSouth (190°)14.8 km/h25.9 km/hClear
8:36 AM-21 °C-23 °C84 %1004.4 hPa4 kmSSW (200°)14.8 km/hPartly Cloudy
8:56 AM-21 °C-22 °C92 %1004.4 hPa16.1 kmSouth (190°)13 km/hPartly Cloudy
9:16 AM-21 °C-22 °C92 %1004.4 hPa9.7 kmSouth (190°)13 km/hScattered Clouds
9:36 AM-22 °C-23 °C92 %1004.4 hPa2.4 kmSSW (200°)11.1 km/hOvercast
9:56 AM-22 °C-23 °C92 %1004.4 hPa4.8 kmSSW (200°)14.8 km/hMostly Cloudy
10:16 AM-22 °C-22 °C100 %1004.4 hPa14.5 kmSSW (200°)16.7 km/hMostly Cloudy
10:36 AM-22 °C-23 °C92 %1004.7 hPa9.7 kmSSW (200°)16.7 km/hOvercast
10:56 AM-21 °C-22 °C92 %1004.7 hPa2.4 kmSSW (210°)13 km/hOvercast
11:16 AM-21 °C-22 °C92 %1004.7 hPa8 kmSouth (190°)11.1 km/hOvercast
11:36 AM-21 °C-22 °C92 %1004.7 hPa11.3 kmSSW (200°)11.1 km/hOvercast
11:56 AM-21 °C-22 °C92 %1005.1 hPa14.5 kmSSW (210°)14.8 km/hOvercast
12:16 PM-21 °C-22 °C92 %1005.1 hPa11.3 kmSSW (200°)11.1 km/hOvercast
12:36 PM-21 °C-22 °C92 %1005.4 hPa14.5 kmSouth (190°)9.3 km/hOvercast
12:56 PM-20 °C-21 °C92 %1005.4 hPa16.1 kmSouth (190°)7.4 km/hOvercast
1:16 PM-20 °C-21 °C92 %1005.4 hPa4 kmSouth (190°)7.4 km/hOvercast
1:36 PM-19 °C-20 °C92 %1005.4 hPa4.8 kmSouth (190°)5.6 km/hOvercast
1:56 PM-19 °C-20 °C92 %1005.4 hPa6.4 kmSSW (210°)9.3 km/hOvercast
2:16 PM-19 °C-20 °C92 %1005.4 hPa9.7 kmSW (230°)9.3 km/hOvercast
2:36 PM-19 °C-20 °C92 %1005.8 hPa12.9 kmSW (220°)7.4 km/hOvercast
2:56 PM-19 °C-21 °C85 %1005.8 hPa11.3 kmSSW (210°)7.4 km/hOvercast
3:16 PM-19 °C-21 °C85 %1005.8 hPa11.3 kmSSW (210°)9.3 km/hOvercast
3:36 PM-19 °C-21 °C85 %1005.4 hPa4.8 kmWSW (250°)5.6 km/hOvercast
3:56 PM-19 °C-20 °C92 %1005.4 hPa12.9 kmSSW (210°)5.6 km/hOvercast
4:16 PM-19 °C-20 °C92 %1005.4 hPa12.9 kmCalmOvercast
4:36 PM-19 °C-21 °C85 %1005.8 hPa8 kmCalmOvercast
4:56 PM-19 °C-21 °C85 %1005.8 hPa8 kmSW (220°)9.3 km/hOvercast
5:16 PM-19 °C-21 °C85 %1005.8 hPa8 kmSSW (200°)5.6 km/hOvercast
5:36 PM-19 °C-21 °C85 %1005.8 hPa14.5 kmCalmOvercast
5:56 PM-19 °C-21 °C85 %1005.8 hPa16.1 kmCalmOvercast
6:16 PM-19 °C-21 °C85 %1005.8 hPa16.1 kmCalmOvercast
6:36 PM-19 °C-21 °C85 %1005.8 hPa16.1 kmCalmOvercast
6:56 PM-20 °C-21 °C92 %1005.8 hPa16.1 kmCalmOvercast
7:16 PM-20 °C-22 °C85 %1005.8 hPa16.1 kmCalmOvercast
7:36 PM-20 °C-22 °C85 %1005.8 hPa16.1 kmCalmOvercast
7:56 PM-20 °C-22 °C85 %1005.8 hPa16.1 kmNorth (350°)5.6 km/hOvercast
8:16 PM-21 °C-22 °C92 %1005.4 hPa14.5 kmNNW (340°)5.6 km/hOvercast
8:36 PM-21 °C-23 °C84 %1005.4 hPa16.1 kmNNW (340°)5.6 km/hOvercast
8:56 PM-21 °C-23 °C84 %1005.4 hPa14.5 kmNorth (360°)5.6 km/hOvercast
9:16 PM-21 °C-22 °C92 %1005.4 hPa16.1 kmNorth (10°)5.6 km/hMostly Cloudy
9:36 PM-22 °C-24 °C84 %1005.4 hPa16.1 kmNorth (360°)7.4 km/hPartly Cloudy
9:56 PM-22 °C-23 °C92 %1005.4 hPa16.1 kmNorth (10°)9.3 km/hClear
10:16 PM-23 °C-24 °C92 %1005.1 hPa16.1 kmNorth (10°)9.3 km/hClear
10:36 PM-23 °C-26 °C77 %1005.1 hPa16.1 kmNorth (360°)9.3 km/hClear
10:56 PM-24 °C-26 °C84 %1005.1 hPa11.3 kmNNE (20°)9.3 km/hScattered Clouds
11:16 PM-24 °C-24 °C100 %1004.7 hPa16.1 kmNNE (30°)9.3 km/hMostly Cloudy
11:36 PM-24 °C-26 °C84 %1004.4 hPa4.8 kmNorth (10°)11.1 km/hOvercast
11:56 PM-24 °C-27 °C77 %1004.4 hPa0.8 kmNorth (10°)7.4 km/hOvercast
Hourly data recorded from PASM, located 0 kilometers away from St. Marys, Alaska







STORIES FROM OUR PARTNERS